TimeCDT,TemperatureF,Dew PointF,Humidity,Sea Level PressureIn,VisibilityMPH,Wind Direction,Wind SpeedMPH,Gust SpeedMPH,PrecipitationIn,Events,Conditions,WindDirDegrees,DateUTC
12:58 AM,62.2,60.1,93,29.97,10.0,South,6.9,-,N/A,,Clear,180,2013-03-31 05:58:00
1:58 AM,62.1,60.3,94,29.95,10.0,SSE,6.9,-,N/A,,Clear,160,2013-03-31 06:58:00
2:58 AM,59.7,59.7,100,29.95,10.0,SE,4.6,-,N/A,,Mostly Cloudy,140,2013-03-31 07:58:00
3:58 AM,59.9,59.9,100,29.93,10.0,SSE,5.8,-,N/A,,Mostly Cloudy,160,2013-03-31 08:58:00
4:38 AM,60.8,60.8,100,29.92,10.0,South,8.1,-,N/A,,Mostly Cloudy,190,2013-03-31 09:38:00
4:58 AM,62.8,62.8,100,29.93,10.0,SSW,8.1,-,N/A,,Overcast,200,2013-03-31 09:58:00
5:58 AM,63.5,62.8,97,29.94,10.0,SSW,9.2,-,N/A,,Overcast,210,2013-03-31 10:58:00
6:48 AM,64.4,62.6,94,29.91,10.0,South,9.2,-,N/A,,Overcast,180,2013-03-31 11:48:00
6:58 AM,64.0,62.8,96,29.91,10.0,South,8.1,-,N/A,,Overcast,170,2013-03-31 11:58:00
7:08 AM,64.4,62.6,94,29.90,10.0,South,8.1,-,N/A,,Overcast,170,2013-03-31 12:08:00
7:58 AM,64.4,63.3,96,29.93,10.0,SE,3.5,-,N/A,,Overcast,140,2013-03-31 12:58:00
8:58 AM,65.8,63.5,92,29.93,10.0,South,5.8,-,N/A,,Overcast,170,2013-03-31 13:58:00
9:20 AM,66.2,64.4,94,29.91,10.0,SSE,6.9,-,N/A,Thunderstorm,Thunderstorm,160,2013-03-31 14:20:00
9:58 AM,66.7,63.1,88,29.92,10.0,SSW,5.8,-,N/A,,Overcast,200,2013-03-31 14:58:00
10:31 AM,66.2,62.6,88,29.91,10.0,South,6.9,-,N/A,Thunderstorm,Thunderstorm,190,2013-03-31 15:31:00
10:32 AM,66.2,62.6,88,29.91,10.0,South,8.1,-,N/A,Rain-Thunderstorm,Light Thunderstorms and Rain,190,2013-03-31 15:32:00
10:48 AM,66.2,62.6,88,29.94,3.0,North,44.9,56.4,N/A,Rain-Thunderstorm,Light Thunderstorms and Rain,350,2013-03-31 15:48:00
10:55 AM,60.8,55.4,82,30.00,0.2,North,36.8,56.4,N/A,Rain-Thunderstorm,Heavy Thunderstorms and Rain,360,2013-03-31 15:55:00
10:58 AM,59.0,55.4,88,30.01,0.2,North,33.4,54.1,0.36,Rain-Thunderstorm,Heavy Thunderstorms and Rain,10,2013-03-31 15:58:00
11:08 AM,57.2,57.2,100,29.99,1.5,North,24.2,39.1,N/A,Rain-Thunderstorm,Heavy Thunderstorms and Rain,10,2013-03-31 16:08:00
11:18 AM,57.2,57.2,100,30.02,7.0,North,18.4,33.4,N/A,Rain-Thunderstorm,Light Thunderstorms and Rain,10,2013-03-31 16:18:00
11:24 AM,57.2,57.2,100,30.02,5.0,NNE,17.3,31.1,N/A,Rain-Thunderstorm,Thunderstorms and Rain,20,2013-03-31 16:24:00
11:30 AM,57.2,57.2,100,30.03,9.0,North,16.1,23.0,N/A,Rain-Thunderstorm,Heavy Rain,10,2013-03-31 16:30:00
11:58 AM,57.9,57.4,98,30.03,6.0,NNE,15.0,21.9,0.43,Rain,Heavy Rain,30,2013-03-31 16:58:00
12:58 PM,57.9,57.6,99,29.95,10.0,SE,10.4,-,0.25,Rain-Thunderstorm,Light Rain,140,2013-03-31 17:58:00
1:58 PM,58.3,58.3,100,29.92,10.0,SE,5.8,-,0.00,,Clear,130,2013-03-31 18:58:00
2:58 PM,63.9,59.2,85,29.92,10.0,Variable,1.2,-,N/A,,Overcast,0,2013-03-31 19:58:00
3:58 PM,66.9,57.7,72,29.90,10.0,Variable,1.2,-,N/A,,Mostly Cloudy,0,2013-03-31 20:58:00
4:48 PM,68.0,59.0,73,29.89,10.0,North,6.9,-,N/A,,Mostly Cloudy,350,2013-03-31 21:48:00
4:58 PM,69.1,59.5,72,29.91,10.0,NNW,8.1,-,N/A,,Mostly Cloudy,340,2013-03-31 21:58:00
5:18 PM,68.0,59.0,73,29.89,10.0,NNW,10.4,-,N/A,,Scattered Clouds,330,2013-03-31 22:18:00
5:58 PM,69.1,59.2,71,29.91,10.0,NW,10.4,-,N/A,,Clear,310,2013-03-31 22:58:00
6:58 PM,68.4,58.6,71,29.91,10.0,North,4.6,-,N/A,,Clear,350,2013-03-31 23:58:00
7:58 PM,65.8,57.6,75,29.93,10.0,NW,3.5,-,N/A,,Clear,310,2013-04-01 00:58:00
8:58 PM,59.5,58.6,97,29.95,10.0,ESE,2.3,-,N/A,,Clear,110,2013-04-01 01:58:00
9:58 PM,57.7,57.7,100,29.96,10.0,Calm,Calm,-,N/A,,Clear,0,2013-04-01 02:58:00
10:38 PM,55.4,55.4,100,29.96,2.0,ESE,2.3,-,N/A,,Clear,110,2013-04-01 03:38:00
10:48 PM,55.4,55.4,100,29.96,6.0,ESE,3.5,-,N/A,,Clear,120,2013-04-01 03:48:00
10:58 PM,56.3,56.1,99,29.97,8.0,East,2.3,-,N/A,,Clear,80,2013-04-01 03:58:00
11:08 PM,55.4,55.4,100,29.96,10.0,Calm,Calm,-,N/A,,Clear,0,2013-04-01 04:08:00
11:38 PM,55.4,55.4,100,29.96,2.0,Calm,Calm,-,N/A,,Clear,0,2013-04-01 04:38:00
11:48 PM,55.4,55.4,100,29.96,3.0,Calm,Calm,-,N/A,,Clear,0,2013-04-01 04:48:00
11:58 PM,54.9,54.9,100,29.98,3.0,Calm,Calm,-,N/A,,Clear,0,2013-04-01 04:58:00